DateTimeUTC,F1_A11,F1_S11,BsB_S11,BsG_S11,BsR_S11,BbsB_S11,BbsG_S11,BbsR_S11,BaB_A11,BaG_A11,BaR_A11,Tu_S11,T_S11,Uu_S11,U_S11,P_S11,T1_A11
2021-01-09T02:00:00Z,00000200,21000000,,,,,,,-000.16,0000.15,0000.10,13.9,21.2,,00.0,0640.2,30.6
2021-01-09T02:01:00Z,00000200,21000000,,,,,,,0000.44,0000.01,-000.32,14.0,21.2,,00.0,0640.2,30.6
2021-01-09T02:02:00Z,00000200,21000000,,,,,,,-000.39,-000.30,0000.01,14.0,21.2,,00.0,0640.2,30.6
2021-01-09T02:03:00Z,00000200,61000000,,,,,,,0000.35,0000.44,0000.12,14.0,21.2,,00.0,0640.2,30.6
2021-01-09T02:04:00Z,00000200,41000000,0000.47,0000.41,0000.30,-000.15,-000.07,0000.09,0000.02,-000.17,-000.06,14.2,21.0,,00.0,0641.1,30.6
2021-01-09T02:05:00Z,00000200,01000000,-000.11,0000.45,0000.23,0000.33,0000.06,0000.09,-000.12,0000.20,0000.09,14.2,20.9,,00.0,0641.1,30.6
2021-01-09T02:06:00Z,00000200,01000000,0000.70,0000.50,-000.04,0000.03,0000.10,-000.09,0000.42,0000.11,0000.13,14.2,20.9,,00.0,0641.2,30.6
2021-01-09T02:07:00Z,00000200,01000000,0001.08,0000.50,0000.15,0000.25,0000.06,-000.17,-000.34,-000.30,0000.03,14.2,20.9,,00.0,0641.2,30.6
2021-01-09T02:08:00Z,00000200,01000000,0000.67,0000.22,0000.09,0000.63,-000.08,-000.06,0000.53,0000.68,0000.18,14.2,20.9,,00.0,0641.3,30.6
2021-01-09T02:09:00Z,00000200,01000000,0000.43,0000.50,0000.17,0000.45,0000.13,0000.14,0000.19,0000.49,0000.15,14.2,20.9,,00.0,0641.4,30.6
2021-01-09T02:10:00Z,00000200,01000000,0000.50,0000.34,0000.05,0000.87,0000.01,0000.02,-000.05,-000.48,0000.16,14.3,20.9,,00.0,0641.4,30.6
2021-01-09T02:11:00Z,00000200,01000000,0000.53,0000.42,0000.10,0000.58,0000.30,0000.28,0000.12,0000.30,-000.18,14.3,20.9,,00.0,0641.4,30.6
2021-01-09T02:12:00Z,00000200,01000000,0000.32,0000.66,0000.26,0000.54,0000.21,0000.11,-000.20,-000.19,-000.12,14.4,20.9,,00.0,0641.4,30.6
2021-01-09T02:13:00Z,00000200,01000000,0000.56,0000.17,0000.03,0000.29,-000.08,0000.14,0000.16,0000.31,0000.40,14.4,20.9,,00.0,0641.4,30.6
2021-01-09T02:14:00Z,00000200,01000000,0000.54,0000.30,-000.20,-000.14,0000.14,0000.09,0000.42,-000.04,0000.14,14.4,20.9,,00.0,0641.4,30.6
2021-01-09T02:15:00Z,00000200,01000000,0000.16,0000.23,0000.05,0000.61,-000.05,0000.09,-000.00,0000.24,-000.27,14.5,21.0,,00.0,0641.4,30.6
2021-01-09T02:16:00Z,00000200,01000000,0000.56,0000.81,0000.15,0000.32,-000.07,0000.02,0000.04,0000.09,0000.32,14.5,21.0,,00.0,0641.3,30.6
2021-01-09T02:17:00Z,00000200,01000000,-000.10,0000.52,0000.08,-000.05,0000.14,0000.14,0000.16,-000.08,-000.03,14.5,21.0,,00.0,0641.3,30.6
2021-01-09T02:18:00Z,00000200,01000000,0000.37,0000.34,0000.22,0000.04,-000.08,0000.15,-000.10,0000.03,-000.12,14.5,21.0,,00.0,0641.3,30.6
2021-01-09T02:19:00Z,00000200,01000000,0001.03,0000.52,0000.01,0000.23,-000.01,-000.00,-000.03,0000.24,-000.05,14.5,21.0,,00.0,0641.3,30.6
2021-01-09T02:20:00Z,00000200,01000000,0001.08,0000.41,0000.23,-000.02,-000.01,0000.03,-000.01,0000.11,0000.18,14.5,20.9,,00.0,0641.3,30.6
2021-01-09T02:21:00Z,00000200,01000000,-000.14,0000.21,0000.18,0000.22,0000.11,-000.15,0000.46,-000.04,0000.34,14.5,20.9,,00.0,0641.3,30.6
2021-01-09T02:22:00Z,00000200,01000000,0001.00,0000.47,0000.22,-000.60,-000.13,0000.07,-000.32,-000.06,-000.45,14.5,20.9,,00.0,0641.4,30.6
2021-01-09T02:23:00Z,00000200,01000000,0000.54,0000.65,0000.03,0000.21,-000.07,0000.01,0000.33,-000.19,0000.40,14.5,20.9,,00.0,0641.4,30.6
2021-01-09T02:24:00Z,00000200,01000000,0000.21,0000.37,0000.30,0000.48,0000.08,0000.13,0000.22,0000.56,-000.12,14.5,21.0,,00.0,0641.4,30.6
2021-01-09T02:25:00Z,00000200,01000000,0001.08,0000.21,0000.09,0000.28,-000.22,0000.13,0000.24,0000.09,0000.03,14.6,21.0,,00.0,0641.4,30.6
2021-01-09T02:26:00Z,00000200,01000000,0001.17,0000.53,-000.10,-000.06,-000.09,0000.07,0000.18,-000.13,0000.31,14.6,21.0,,00.0,0641.4,30.6
2021-01-09T02:27:00Z,00000200,01000000,0000.73,0000.67,0000.11,0000.35,0000.03,0000.05,-000.35,0000.05,-000.07,14.6,21.0,,00.0,0641.4,30.6
2021-01-09T02:28:00Z,00000200,01000000,0000.80,0000.32,0000.05,-000.11,0000.02,0000.09,0000.42,0000.16,-000.15,14.6,21.0,,00.0,0641.4,30.6
2021-01-09T02:29:00Z,00000200,01000000,0000.35,0000.61,0000.15,0000.20,0000.05,0000.04,0000.05,0000.16,0000.65,14.7,21.0,,00.0,0641.4,30.7
2021-01-09T02:30:00Z,00000200,01000000,0001.05,0000.32,-000.16,-000.15,0000.25,0000.29,0000.14,0000.55,-000.34,14.7,21.0,,00.0,0641.4,30.7
2021-01-09T02:31:00Z,00000200,01000000,0000.55,0000.67,0000.00,0000.31,0000.11,-000.01,-000.01,-000.26,0000.21,14.7,21.1,,00.0,0641.3,30.7
2021-01-09T02:32:00Z,00000200,01000000,0000.45,0000.31,0000.11,0000.08,-000.00,-000.10,0000.03,0000.08,0000.10,14.7,21.1,,00.0,0641.3,30.7
2021-01-09T02:33:00Z,00000200,01000000,-000.02,0000.37,0000.14,0000.31,-000.17,0000.10,0000.22,0000.05,0000.01,14.7,21.1,,00.0,0641.3,30.7
2021-01-09T02:34:00Z,00000200,01000000,0000.53,0000.41,0000.21,-000.31,0000.18,0000.14,0000.28,-000.05,-000.05,14.7,21.1,,00.0,0641.2,30.7
2021-01-09T02:35:00Z,00000200,01000000,0001.01,0000.50,0000.07,-000.03,0000.15,0000.34,-000.25,-000.26,0000.05,14.7,21.1,,00.0,0641.2,30.6
2021-01-09T02:36:00Z,00000200,01000000,0000.56,0000.56,-000.05,0000.34,0000.21,-000.03,0000.14,0000.37,-000.16,14.7,21.0,,00.0,0641.1,30.6
2021-01-09T02:37:00Z,00000200,01000000,0000.37,0000.74,0000.03,0000.49,-000.21,0000.15,0000.20,0000.20,0000.73,14.7,21.0,,00.0,0641.1,30.6
2021-01-09T02:38:00Z,00000200,01000000,0000.16,0000.36,0000.22,0000.16,0000.29,0000.20,-000.11,0000.29,-000.26,14.7,21.0,,00.0,0641.1,30.6
2021-01-09T02:39:00Z,00000200,01000000,0000.17,0000.81,0000.15,-000.13,0000.23,0000.20,0000.52,0000.22,0000.12,14.7,21.0,,00.0,0641.1,30.7
2021-01-09T02:40:00Z,00000200,01000000,0000.96,0000.18,0000.24,0000.35,0000.38,-000.17,0000.00,0000.07,0000.25,14.7,21.1,,00.0,0641.1,30.7
2021-01-09T02:41:00Z,00000200,01000000,0001.07,0000.54,0000.20,0000.61,0000.14,-000.22,0000.08,-000.03,0000.17,14.8,21.1,,00.0,0641.1,30.7
2021-01-09T02:42:00Z,00000200,01000000,0000.27,0000.57,0000.27,-000.69,0000.13,0000.15,0000.37,0000.51,-000.22,14.8,21.1,,00.0,0641.1,30.7
2021-01-09T02:43:00Z,00000200,01000000,0000.54,0000.52,0000.19,-000.25,0000.27,0000.19,0000.10,-000.27,0000.26,14.8,21.1,,00.0,0641.1,30.7
2021-01-09T02:44:00Z,00000200,01000000,0000.62,0000.61,0000.46,0000.13,-000.08,0000.09,0000.08,0000.14,-000.11,14.8,21.1,,00.0,0641.2,30.7
2021-01-09T02:45:00Z,00000200,01000000,0000.53,0000.37,-000.30,0000.64,-000.03,0000.03,0000.04,0000.07,0000.11,14.9,21.1,,00.0,0641.3,30.7
2021-01-09T02:46:00Z,00000200,01000000,0001.36,0000.66,0000.11,0000.36,0000.09,-000.17,-000.22,-000.25,-000.04,14.9,21.2,,00.0,0641.3,30.7
2021-01-09T02:47:00Z,00000200,01000000,-000.08,0000.57,-000.13,-000.33,0000.19,-000.07,-000.03,0000.21,-000.01,14.8,21.1,,00.0,0641.3,30.7
2021-01-09T02:48:00Z,00000200,01000000,0000.36,0000.27,0000.09,-000.09,0000.14,-000.00,0000.19,-000.01,-000.01,14.8,21.1,,00.0,0641.3,30.6
2021-01-09T02:49:00Z,00000200,01000000,0000.25,0000.13,-000.06,-000.11,0000.18,0000.01,0000.02,-000.03,0000.08,14.7,21.1,,00.0,0641.3,30.6
2021-01-09T02:50:00Z,00000200,01000000,0000.32,0000.71,0000.11,0000.24,0000.01,0000.07,-000.03,-000.22,-000.00,14.6,21.0,,00.0,0641.2,30.6
2021-01-09T02:51:00Z,00000200,01000000,0000.72,0000.53,0000.47,-000.03,0000.13,0000.17,0000.31,0000.53,0000.04,14.6,21.0,,00.0,0641.2,30.6
2021-01-09T02:52:00Z,00000200,01000000,0001.01,0000.50,0000.31,0000.52,0000.12,0000.38,-000.20,-000.25,0000.24,14.6,21.0,,00.0,0641.2,30.6
2021-01-09T02:53:00Z,00000200,01000000,0000.50,0000.76,0000.20,0000.11,0000.17,-000.01,0000.53,0000.44,-000.11,14.6,21.0,,00.0,0641.2,30.6
2021-01-09T02:54:00Z,00000200,01000000,0000.25,0000.65,-000.27,-000.53,0000.13,0000.04,-000.12,-000.34,-000.02,14.6,21.0,,00.0,0641.2,30.6
2021-01-09T02:55:00Z,00000200,01000000,0000.24,0000.39,-000.08,0000.38,0000.20,-000.22,-000.05,0000.45,0000.25,14.6,21.0,,00.0,0641.2,30.6
2021-01-09T02:56:00Z,00000200,01000000,0000.49,0000.59,0000.04,0000.20,0000.07,-000.03,0000.53,0000.05,0000.40,14.7,21.1,,00.0,0641.2,30.6
2021-01-09T02:57:00Z,00000200,41000000,,,,,,,-000.20,0000.35,-000.31,14.8,21.1,,00.0,0641.1,30.6
2021-01-09T02:58:00Z,00000200,61000000,,,,,,,0000.22,-000.23,0000.02,14.3,21.2,,00.0,0640.2,30.7
2021-01-09T02:59:00Z,00000200,21000000,,,,,,,-000.13,-000.25,0000.31,14.3,21.3,,00.0,0640.2,30.7
